Regional Weather Roundup
Issued by NWS

Home | Current Version | Previous Version | Graphics & Text | Print | Product List | Glossary On
Versions: 1 2 3 4 5 6 7 8 9 10 11 12 13 14 15 16 17 18 19 20 21 22 23 24 25 26 27 28 29 30 31 32 33 34 35 36 37 38 39 40 41 42 43 44 45 46 47 48 49 50
000
ASUS43 KFSD 041010
RWRSD

WEATHER ROUNDUP FOR SOUTH DAKOTA
NATIONAL WEATHER SERVICE SIOUX FALLS SD
500 AM CDT FRI SEP 04 2015

NOTE: "FAIR" INDICATES FEW OR NO CLOUDS BELOW 12,000 FEET WITH NO
SIGNIFICANT WEATHER AND/OR OBSTRUCTIONS TO VISIBILITY.


SDZ001>005-009-010-012>017-041100-
NORTHWEST AND NORTH CENTRAL SOUTH DAKOTA

CITY           SKY/WX    TMP DP  RH WIND       PRES   REMARKS
BUFFALO          N/A     64  58  80 NW6       29.72R
MOBRIDGE       CLOUDY    72  72 100 E10       29.66F
$$

SDZ012>016-024>037-041>051-057-063-072>074-041100-
SOUTHWEST AND SOUTH CENTRAL SOUTH DAKOTA

CITY           SKY/WX    TMP DP  RH WIND       PRES   REMARKS
RAPID CTY ARPT MOCLDY    68  52  56 SW9       29.78S
PIERRE         LGT RAIN  73  66  78 S22G31    29.78R
CUSTER         MOCLDY    63  45  51 CALM      29.93S
PHILIP         CLOUDY    74  57  55 SW6       29.73F
PINE RIDGE     MOCLDY    62  58  86 S3        29.80S
WINNER         LGT RAIN  71  62  73 N7        29.72F
$$

SDZ004>011-016>023-039-040-041100-
NORTHEAST SOUTH DAKOTA

CITY           SKY/WX    TMP DP  RH WIND       PRES   REMARKS
ABERDEEN       PTCLDY    73  70  90 SE7       29.70F
WATERTOWN      CLEAR     73  69  87 SE8       29.78S
BROOKINGS      CLEAR    N/A N/A N/A SE13      29.81F
SISSETON         N/A     74  73  97 S9        29.76S
$$

SDZ017-020-022-023-036>040-048>070-041100-
SOUTHEAST SOUTH DAKOTA

CITY           SKY/WX    TMP DP  RH WIND       PRES   REMARKS
SIOUX FALLS    PTCLDY    74  68  81 S8        29.82R
HURON          MOCLDY    75  68  78 S13       29.71S
CHAMBERLAIN    DRIZZLE   76  62  62 W13       29.75S
MITCHELL       MOCLDY    74  68  81 S9        29.74S
YANKTON        MOCLDY    73  66  78 SE3       29.78S
$$

ABBREVIATIONS USED IN REMARKS
   TC - TEMPERATURE IN CELSIUS
  WCI - WIND CHILL INDEX
   HX - HEAT INDEX
  VSB - VISIBILITY




USA.gov is the U.S. government's official web portal to all federal, state and local government web resources and services.